Weather History for Cairo, Egypt

Change the Weather History Date:

Thursday, August 29, 2013

  Actual Average Record
Temperature  
Mean Temperature 86 °F -  
Max Temperature 97 °F 89 °F 98 °F (2006)
Min Temperature 74 °F 70 °F 71 °F (1996)
Cooling Degree Days 20    
Growing Degree Days 36 (Base 50)    
Moisture  
Dew Point 66 °F    
Average Humidity 55    
Maximum Humidity 83    
Minimum Humidity 20    
Precipitation  
Precipitation 0.00 in 0.00 in - ()
Sea Level Pressure  
Sea Level Pressure 29.82 in    
Wind  
Wind Speed 5 mph ()    
Max Wind Speed 12 mph    
Max Gust Speed -    
Visibility 3.2 miles    
Events      
Averages and records for this station are not official NWS values.
T = Trace of Precipitation, MM = Missing Value Source: Averaged Metar Reports

Daily Weather History Graph

Daily Weather History Graph

Search for Another Location

Airport:

Trip Planner

Search our weather history database for the weather conditions in past years. The results will help you decide how hot, cold, wet, or windy it might be!

Date:

Astronomy

Aug. 29, 2013 Rise Set
Actual Time 5:29 AM EET 6:20 PM EET
Civil Twilight 5:05 AM EET 6:44 PM EET
Nautical Twilight 4:36 AM EET 7:13 PM EET
Astronomical Twilight 4:06 AM EET 7:43 PM EET
Moon No Moon Rise 1:19 PM EET (8/29)
Length of Visible Light 13h 39m
Length of Day
12h 50m
Last Quarter, 40% of the Moon is Illuminated
Aug 29
Last Quarter
Sep 5
New
Sep 12
First Quarter
Sep 19
Full
Sep 27
Last Quarter

Hourly Weather History & Observations

Time (EET) Temp. Heat Index Dew Point Humidity Pressure Visibility Wind Dir Wind Speed Gust Speed Precip Events Conditions
12:00 AM 78.8 °F - 68.0 °F 69% 29.83 in 3.7 mi NNW 6.9 mph - N/A   Unknown
12:30 AM 78.8 °F - 69.8 °F 74% 29.83 in 3.7 mi NNW 6.9 mph - N/A   Unknown
1:00 AM 78.8 °F - 68.0 °F 69% 29.83 in 3.7 mi NNW 4.6 mph - N/A   Unknown
1:30 AM 77.0 °F - 68.0 °F 74% 29.83 in 3.7 mi NNW 4.6 mph - N/A   Unknown
2:00 AM 77 °F - 68 °F 68% 29.82 in 4 mi NW 4.6 mph - -   Mist
2:00 AM 77.0 °F - 68.0 °F 74% 29.83 in 3.7 mi NW 4.6 mph - N/A   Unknown
2:30 AM 77.0 °F - 69.8 °F 78% 29.83 in 2.5 mi NW 5.8 mph - N/A   Mist
3:00 AM 77.0 °F - 69.8 °F 78% 29.83 in 2.5 mi NW 5.8 mph - N/A   Mist
3:30 AM 75.2 °F - 69.8 °F 83% 29.83 in 2.5 mi Calm Calm - N/A   Mist
4:00 AM 75.2 °F - 69.8 °F 83% 29.83 in 2.5 mi North 2.3 mph - N/A   Mist
4:30 AM 75.2 °F - 69.8 °F 83% 29.83 in 2.5 mi North 2.3 mph - N/A   Mist
5:00 AM 75.2 °F - 68.0 °F 78% 29.83 in 2.5 mi Calm Calm - N/A   Mist
5:30 AM 75.2 °F - 68.0 °F 78% 29.83 in 2.5 mi Calm Calm - N/A   Mist
6:00 AM 75.2 °F - 68.0 °F 78% 29.83 in 2.5 mi Calm Calm - N/A   Mist
6:30 AM 75.2 °F - 68.0 °F 78% 29.83 in 2.5 mi Calm Calm - N/A   Mist
7:00 AM 78.8 °F - 71.6 °F 78% 29.83 in 2.5 mi Calm Calm - N/A   Mist
7:30 AM 80.6 °F 85.4 °F 73.4 °F 79% 29.83 in 2.5 mi Calm Calm - N/A   Mist
8:00 AM 81 °F - 72 °F 67% 29.85 in 2 mi NW 4.6 mph - -   Mist
8:00 AM 80.6 °F 84.6 °F 71.6 °F 74% 29.86 in 2.5 mi NW 4.6 mph - N/A   Mist
8:30 AM 80.6 °F 84.6 °F 71.6 °F 74% 29.86 in 2.5 mi NW 4.6 mph - N/A   Mist
9:00 AM 82.4 °F 86.3 °F 69.8 °F 66% 29.86 in 2.5 mi NW 5.8 mph - N/A   Mist
9:30 AM 84.2 °F 87.3 °F 68.0 °F 58% 29.86 in 3.7 mi NNW 5.8 mph - N/A   Unknown
10:00 AM 86.0 °F 89.4 °F 68.0 °F 55% 29.86 in 3.7 mi NNW 4.6 mph - N/A   Unknown
10:30 AM 87.8 °F 90.4 °F 66.2 °F 49% 29.86 in 3.7 mi NW 6.9 mph - N/A   Unknown
11:00 AM 89.6 °F 91.1 °F 64.4 °F 43% 29.83 in 3.7 mi NNW 8.1 mph - N/A   Unknown
11:30 AM 89.6 °F 91.1 °F 64.4 °F 43% 29.83 in 3.7 mi NNW 8.1 mph - N/A   Unknown
12:00 PM 93.2 °F 93.3 °F 60.8 °F 34% 29.83 in - NW 5.8 mph - N/A   Clear
12:30 PM 93.2 °F 92.6 °F 59.0 °F 32% 29.83 in - WNW 8.1 mph - N/A   Clear
1:00 PM 95.0 °F 93.7 °F 57.2 °F 28% 29.80 in - NNW 6.9 mph - N/A   Clear
1:30 PM 95.0 °F 93.7 °F 57.2 °F 28% 29.80 in - NNW 6.9 mph - N/A   Clear
2:00 PM 96 °F - 59 °F 20% 29.79 in 6 mi NW 9.2 mph - -  
2:00 PM 96.8 °F 96.2 °F 59.0 °F 28% 29.80 in - NW 9.2 mph - N/A   Clear
2:30 PM 96.8 °F 96.2 °F 59.0 °F 28% 29.77 in - WNW 10.4 mph - N/A   Clear
3:00 PM 96.8 °F 95.1 °F 55.4 °F 25% 29.77 in - NW 10.4 mph - N/A   Clear
3:30 PM 96.8 °F 95.1 °F 55.4 °F 25% 29.77 in - NW 10.4 mph - N/A   Clear
4:00 PM 98.6 °F 96.4 °F 53.6 °F 22% 29.77 in - WNW 9.2 mph - N/A   Clear
4:30 PM 96.8 °F 95.8 °F 57.2 °F 27% 29.77 in - WNW 9.2 mph - N/A   Clear
5:00 PM 96.8 °F 95.8 °F 57.2 °F 27% 29.77 in - NW 10.4 mph - N/A   Clear
5:30 PM 95.0 °F 93.0 °F 55.4 °F 26% 29.77 in - NW 10.4 mph - N/A   Clear
6:00 PM 95.0 °F 93.7 °F 57.2 °F 28% 29.77 in - NW 11.5 mph - N/A   Clear
6:30 PM 91.4 °F 92.1 °F 62.6 °F 38% 29.77 in - NW 11.5 mph - N/A   Clear
7:00 PM 91.4 °F 94.0 °F 66.2 °F 43% 29.80 in - NW 11.5 mph - N/A   Clear
7:30 PM 89.6 °F 93.4 °F 68.0 °F 49% 29.80 in - NW 11.5 mph - N/A   Clear
8:00 PM 87 °F - 67 °F 43% 29.81 in 6 mi NW 11.5 mph - -  
8:00 PM 86.0 °F 89.4 °F 68.0 °F 55% 29.83 in - NW 11.5 mph - N/A   Clear
8:30 PM 86.0 °F 89.4 °F 68.0 °F 55% 29.83 in - NW 11.5 mph - N/A   Clear
9:00 PM 84.2 °F 87.3 °F 68.0 °F 58% 29.83 in - NNW 10.4 mph - N/A   Clear
9:30 PM 84.2 °F 88.4 °F 69.8 °F 62% 29.83 in - NW 9.2 mph - N/A   Clear
10:00 PM 82.4 °F 86.3 °F 69.8 °F 66% 29.83 in - NNW 8.1 mph - N/A   Clear
10:30 PM 82.4 °F 87.2 °F 71.6 °F 70% 29.83 in - NW 5.8 mph - N/A   Clear
11:00 PM 82.4 °F 86.3 °F 69.8 °F 66% 29.83 in - NW 5.8 mph - N/A   Clear
11:30 PM 80.6 °F 83.9 °F 69.8 °F 70% 29.83 in - NW 9.2 mph - N/A   Clear